Content
SEND FEEDBACK

Daily
Averages
Monthly
Summary
Ecuador

LA TACUNGA, ECUADOR


Home > South America > Ecuador
Elevation: 9137 feet     Latitude: 00 55S     Longitude: 078 37W

WEATHER
 
SELECT A DAY
Number of Records: 103,536;   Date Range: 10/10/97 - 8/31/14
 
SHARE

PRINT THIS DATA

[ ← Previous Day ]
WEATHER ALMANAC - FEBRUARY 13, 2013
[ Next Day → ]
[ °C ]   °F
Weather ElementAverageHighLow
Temperature55.2 °F69.8 °F (2:00 pm)44.6 °F (6:00 am)
Dewpoint49.7 °F51.8 °F (10:00 am)44.6 °F (6:00 am)
Humidity82.7 %100 % (5:00 am)46 % (1:00 pm)
Barometer30.36 in30.42 in (1:00 am)30.27 in (3:00 pm)
Wind Speed3.1 mph12.7 mph (1:00 pm)
Weather ElementAverage
Visibility6.1 mi
Wind DirectionESE (114.2 °)

Weather ElementTotal
Precipitation---
Heating Degree Days7.8 (Base 65)
Growing Degree Days7.2 (Base 50)
Averaged from 24 records on February 13, 2013
WEATHER CONDITIONS BREAKOUT
WIND DIRECTION BREAKOUT
WEATHER BY HOUR - FEBRUARY 13, 2013
[ °C ]   °F
Local TimeTemperatureDewpointHumidityBarometerVisibilityWind DirectionWind SpeedGust SpeedPrecipitationEventsConditions
1:00 AM51.8 °F50.0 °F94 %30.42 in5.0 miCalmFogFog
2:00 AM50.0 °F48.2 °F94 %30.42 in5.0 miNorth (10°)2.3 mphFogFog
3:00 AM48.2 °F46.4 °F93 %30.39 in5.0 miNNE (20°)2.3 mphFogFog
5:00 AM46.4 °F46.4 °F100 %30.36 in3.7 miCalmFogFog
6:00 AM44.6 °F44.6 °F100 %30.39 in3.7 miCalmFogFog
7:00 AM48.2 °F48.2 °F100 %30.39 in5.0 miNE (40°)3.5 mphFogFog
7:00 AM48.0 °F48.0 °F100 %5.0 miNE (40°)3.5 mphFogLight Fog
8:00 AM48.2 °F48.2 °F100 %30.42 in6.2 miCalmMostly Cloudy
9:00 AM53.6 °F50.0 °F88 %30.42 in6.2 miCalmMostly Cloudy
10:00 AM58.0 °F51.0 °F72 %9.0 miEast (90°)2.3 mphPartly Cloudy
10:00 AM57.2 °F51.8 °F82 %30.42 in6.2 miEast (90°)2.3 mphMostly Cloudy
11:00 AM62.6 °F50.0 °F63 %30.39 in6.2 miSouth (190°)4.6 mphMostly Cloudy
12:00 PM64.4 °F51.8 °F64 %30.36 in6.2 miCalmScattered Clouds
1:00 PM67.0 °F51.0 °F46 %12.0 miSSE (150°)12.7 mphScattered Clouds
1:00 PM68.0 °F51.8 °F56 %30.33 in6.2 miSSE (150°)12.7 mphScattered Clouds
2:00 PM69.8 °F48.2 °F46 %30.30 in6.2 miWest (270°)4.6 mphScattered Clouds
3:00 PM60.8 °F50.0 °F68 %30.27 in6.2 miWSW (240°)3.5 mphThunderstormThunderstorm
4:00 PM53.6 °F50.0 °F88 %30.30 in6.2 miESE (120°)2.3 mphRainLight Rain
4:00 PM54.0 °F51.0 °F85 %7.0 miESE (120°)2.3 mphRainLight Rain
5:00 PM53.6 °F51.8 °F94 %30.30 in6.2 miENE (60°)2.3 mphMostly Cloudy
6:00 PM55.4 °F51.8 °F88 %30.33 in6.2 miWNW (300°)2.3 mphMostly Cloudy
7:00 PM54.0 °F50.0 °F82 %6.0 miNNW (330°)2.3 mphMostly Cloudy
7:00 PM53.6 °F50.0 °F88 %30.33 in6.2 miNNW (330°)2.3 mphMostly Cloudy
8:00 PM53.6 °F51.8 °F94 %30.36 in6.2 miSouth (190°)5.8 mphMostly Cloudy
Hourly data recorded from SELT, located miles away from La Tacunga, Ecuador







STORIES FROM OUR PARTNERS